Time,TemperatureF,DewpointF,PressureIn,WindDirection,WindDirectionDegrees,WindSpeedMPH,WindSpeedGustMPH,Humidity,HourlyPrecipIn,Conditions,Clouds,dailyrainin,SoftwareType,DateUTC
2013-08-02 00:02:00,66.0,63.0,29.86,North,0,0.0,0.0,90,0.04,,,0.05,,2013-08-02 04:02:00,
2013-08-02 00:12:00,66.0,63.0,29.86,North,0,0.0,0.0,90,0.03,,,0.06,,2013-08-02 04:12:00,
2013-08-02 00:22:00,66.0,63.0,29.86,North,0,0.0,0.0,90,0.03,,,0.06,,2013-08-02 04:22:00,
2013-08-02 00:33:00,66.0,63.0,29.86,North,0,0.0,0.0,90,0.03,,,0.06,,2013-08-02 04:33:00,
2013-08-02 00:43:00,66.0,63.0,29.86,North,0,0.0,0.0,90,0.03,,,0.06,,2013-08-02 04:43:00,
2013-08-02 00:53:00,66.0,63.0,29.85,North,0,0.0,0.0,91,0.04,,,0.10,,2013-08-02 04:53:00,
2013-08-02 01:02:00,66.0,63.0,29.84,North,0,0.0,0.0,91,0.05,,,0.11,,2013-08-02 05:02:00,
2013-08-02 01:12:00,66.0,63.0,29.84,North,0,0.0,0.0,91,0.04,,,0.11,,2013-08-02 05:12:00,
2013-08-02 01:22:00,66.0,63.0,29.84,North,0,0.0,0.0,91,0.04,,,0.12,,2013-08-02 05:22:00,
2013-08-02 01:32:00,66.0,63.0,29.83,North,0,0.0,0.0,91,0.04,,,0.12,,2013-08-02 05:32:00,
2013-08-02 01:53:00,66.0,63.0,29.83,North,0,0.0,0.0,91,0.03,,,0.13,,2013-08-02 05:53:00,
2013-08-02 02:02:00,66.0,63.0,29.82,North,0,0.0,0.0,91,0.07,,,0.18,,2013-08-02 06:02:00,
2013-08-02 02:12:00,66.0,63.0,29.82,SSW,193,0.0,1.0,91,0.12,,,0.23,,2013-08-02 06:12:00,
2013-08-02 02:22:00,66.0,63.0,29.82,SSW,193,0.0,1.0,91,0.12,,,0.23,,2013-08-02 06:22:00,
2013-08-02 02:33:00,66.0,63.0,29.81,SSW,193,0.0,1.0,91,0.16,,,0.28,,2013-08-02 06:33:00,
2013-08-02 02:43:00,66.0,63.0,29.81,SSW,193,0.0,1.0,91,0.16,,,0.28,,2013-08-02 06:43:00,
2013-08-02 02:52:00,66.0,63.0,29.81,SSW,193,0.0,1.0,91,0.16,,,0.28,,2013-08-02 06:52:00,
2013-08-02 03:02:00,66.0,64.0,29.80,SSE,160,0.0,1.0,92,0.20,,,0.38,,2013-08-02 07:02:00,
2013-08-02 03:12:00,66.0,64.0,29.80,SSE,160,0.0,1.0,92,0.20,,,0.38,,2013-08-02 07:12:00,
2013-08-02 03:22:00,66.0,64.0,29.79,ESE,118,0.0,1.0,92,0.17,,,0.44,,2013-08-02 07:22:00,
2013-08-02 03:33:00,66.0,64.0,29.79,ESE,118,0.0,1.0,92,0.17,,,0.44,,2013-08-02 07:33:00,
2013-08-02 03:44:00,65.0,63.0,29.79,ESE,118,0.0,1.0,92,0.21,,,0.52,,2013-08-02 07:44:00,
2013-08-02 03:53:00,65.0,63.0,29.79,ESE,118,0.0,1.0,92,0.21,,,0.52,,2013-08-02 07:53:00,
2013-08-02 04:02:00,65.0,63.0,29.79,ESE,118,0.0,1.0,92,0.20,,,0.58,,2013-08-02 08:02:00,
2013-08-02 04:12:00,65.0,63.0,29.79,ESE,118,0.0,1.0,92,0.18,,,0.60,,2013-08-02 08:12:00,
2013-08-02 04:22:00,65.0,63.0,29.79,ESE,118,0.0,1.0,92,0.18,,,0.60,,2013-08-02 08:22:00,
2013-08-02 04:33:00,65.0,63.0,29.79,ESE,118,0.0,1.0,92,0.18,,,0.60,,2013-08-02 08:33:00,
2013-08-02 04:43:00,65.0,63.0,29.79,ESE,120,0.0,1.0,92,0.10,,,0.62,,2013-08-02 08:43:00,
2013-08-02 04:54:00,65.0,63.0,29.79,ESE,120,0.0,2.0,92,0.07,,,0.63,,2013-08-02 08:54:00,
2013-08-02 05:02:00,65.0,63.0,29.80,ESE,120,0.0,1.0,92,0.06,,,0.64,,2013-08-02 09:02:00,
2013-08-02 05:12:00,65.0,63.0,29.80,ESE,120,0.0,1.0,92,0.06,,,0.64,,2013-08-02 09:12:00,
2013-08-02 05:23:00,65.0,63.0,29.80,ESE,120,0.0,1.0,92,0.06,,,0.64,,2013-08-02 09:23:00,
2013-08-02 05:33:00,65.0,63.0,29.80,SE,128,0.0,2.0,92,0.05,,,0.66,,2013-08-02 09:33:00,
2013-08-02 05:44:00,65.0,63.0,29.80,SE,128,0.0,2.0,92,0.05,,,0.66,,2013-08-02 09:44:00,
2013-08-02 05:53:00,65.0,63.0,29.80,North,0,0.0,0.0,92,0.03,,,0.66,,2013-08-02 09:53:00,
2013-08-02 06:03:00,65.0,63.0,29.80,SSE,154,0.0,3.0,92,0.02,,,0.66,,2013-08-02 10:03:00,
2013-08-02 06:12:00,65.0,63.0,29.80,SE,131,0.0,3.0,92,0.01,,,0.66,,2013-08-02 10:12:00,
2013-08-02 06:23:00,65.0,63.0,29.80,SSE,151,0.0,3.0,92,0.00,,,0.66,,2013-08-02 10:23:00,
2013-08-02 06:43:00,65.0,63.0,29.80,South,173,0.0,1.0,92,0.00,,,0.66,,2013-08-02 10:43:00,
2013-08-02 06:52:00,65.0,63.0,29.80,South,173,0.0,1.0,92,0.00,,,0.66,,2013-08-02 10:52:00,
2013-08-02 07:02:00,65.0,63.0,29.80,South,173,0.0,1.0,92,0.00,,,0.66,,2013-08-02 11:02:00,
2013-08-02 07:12:00,65.0,63.0,29.80,South,173,0.0,1.0,92,0.00,,,0.66,,2013-08-02 11:12:00,
2013-08-02 07:23:00,65.0,63.0,29.81,South,173,0.0,2.0,92,0.00,,,0.66,,2013-08-02 11:23:00,
2013-08-02 07:33:00,65.0,63.0,29.81,South,173,0.0,2.0,92,0.00,,,0.66,,2013-08-02 11:33:00,
2013-08-02 07:43:00,66.0,64.0,29.82,South,173,0.0,1.0,92,0.00,,,0.66,,2013-08-02 11:43:00,
2013-08-02 07:52:00,66.0,64.0,29.81,South,170,0.0,1.0,92,0.00,,,0.66,,2013-08-02 11:52:00,
2013-08-02 08:02:00,66.0,64.0,29.81,SSE,168,0.0,1.0,92,0.00,,,0.66,,2013-08-02 12:02:00,
2013-08-02 08:12:00,66.0,64.0,29.81,SSE,168,0.0,1.0,92,0.00,,,0.66,,2013-08-02 12:12:00,
2013-08-02 08:22:00,66.0,64.0,29.81,SSE,168,0.0,1.0,92,0.00,,,0.66,,2013-08-02 12:22:00,
2013-08-02 08:33:00,67.0,65.0,29.81,SSE,168,0.0,2.0,93,0.00,,,0.66,,2013-08-02 12:33:00,
2013-08-02 08:43:00,67.0,65.0,29.81,WNW,300,0.0,2.0,93,0.00,,,0.66,,2013-08-02 12:43:00,
2013-08-02 09:03:00,67.0,65.0,29.81,WNW,296,0.0,3.0,93,0.00,,,0.66,,2013-08-02 13:03:00,
2013-08-02 09:12:00,67.0,65.0,29.81,WNW,296,0.0,3.0,93,0.00,,,0.66,,2013-08-02 13:12:00,
2013-08-02 09:22:00,68.0,66.0,29.81,SW,236,0.0,3.0,93,0.00,,,0.66,,2013-08-02 13:22:00,
2013-08-02 09:33:00,68.0,66.0,29.81,WSW,243,0.0,3.0,92,0.00,,,0.66,,2013-08-02 13:33:00,
2013-08-02 09:43:00,68.0,66.0,29.81,WSW,243,0.0,3.0,92,0.00,,,0.66,,2013-08-02 13:43:00,
2013-08-02 09:52:00,69.0,67.0,29.80,NW,309,1.0,4.0,92,0.00,,,0.66,,2013-08-02 13:52:00,
2013-08-02 10:02:00,70.0,68.0,29.81,NW,310,0.0,2.0,93,0.00,,,0.66,,2013-08-02 14:02:00,
2013-08-02 10:22:00,72.0,70.0,29.81,WNW,303,0.0,3.0,92,0.00,,,0.66,,2013-08-02 14:22:00,
2013-08-02 10:32:00,72.0,70.0,29.81,WNW,303,0.0,3.0,92,0.00,,,0.66,,2013-08-02 14:32:00,
2013-08-02 10:43:00,72.0,70.0,29.81,WNW,303,0.0,3.0,92,0.00,,,0.66,,2013-08-02 14:43:00,
2013-08-02 10:53:00,75.0,71.0,29.80,WNW,301,1.0,5.0,86,0.00,,,0.66,,2013-08-02 14:53:00,
2013-08-02 11:03:00,77.0,71.0,29.80,NW,311,1.0,5.0,82,0.00,,,0.66,,2013-08-02 15:03:00,
2013-08-02 11:12:00,77.0,71.0,29.80,NW,311,1.0,5.0,82,0.00,,,0.66,,2013-08-02 15:12:00,
2013-08-02 11:22:00,77.0,71.0,29.80,NW,311,1.0,5.0,82,0.00,,,0.66,,2013-08-02 15:22:00,
2013-08-02 11:32:00,79.0,70.0,29.80,WNW,287,1.0,5.0,74,0.00,,,0.66,,2013-08-02 15:32:00,
2013-08-02 11:43:00,79.0,70.0,29.80,WNW,287,1.0,5.0,74,0.00,,,0.66,,2013-08-02 15:43:00,
2013-08-02 11:53:00,80.0,71.0,29.80,WNW,282,1.0,5.0,75,0.00,,,0.66,,2013-08-02 15:53:00,
2013-08-02 12:02:00,80.0,71.0,29.80,WNW,282,1.0,5.0,75,0.00,,,0.66,,2013-08-02 16:02:00,
2013-08-02 12:32:00,80.0,69.0,29.80,West,267,1.0,4.0,69,0.00,,,0.66,,2013-08-02 16:32:00,
2013-08-02 12:43:00,81.0,70.0,29.79,West,278,1.0,7.0,70,0.00,,,0.66,,2013-08-02 16:43:00,
2013-08-02 12:52:00,81.0,72.0,29.79,SW,219,1.0,7.0,73,0.00,,,0.66,,2013-08-02 16:52:00,
2013-08-02 13:02:00,80.0,69.0,29.78,WSW,246,1.0,7.0,69,0.00,,,0.66,,2013-08-02 17:02:00,
2013-08-02 13:12:00,81.0,69.0,29.78,WNW,286,1.0,6.0,68,0.00,,,0.66,,2013-08-02 17:12:00,
2013-08-02 13:35:00,81.0,67.0,29.78,WNW,296,2.0,7.0,63,0.00,,,0.66,,2013-08-02 17:35:00,
2013-08-02 13:43:00,80.0,69.0,29.78,West,280,2.0,9.0,69,0.00,,,0.66,,2013-08-02 17:43:00,
2013-08-02 13:52:00,82.0,69.0,29.78,West,272,1.0,10.0,64,0.00,,,0.66,,2013-08-02 17:52:00,
2013-08-02 14:12:00,83.0,71.0,29.77,WNW,283,2.0,12.0,67,0.00,,,0.66,,2013-08-02 18:12:00,
2013-08-02 14:22:00,83.0,71.0,29.77,WNW,283,2.0,12.0,67,0.00,,,0.66,,2013-08-02 18:22:00,
2013-08-02 14:32:00,83.0,65.0,29.77,West,278,3.0,9.0,54,0.00,,,0.66,,2013-08-02 18:32:00,
2013-08-02 14:43:00,82.0,65.0,29.77,WNW,288,3.0,9.0,56,0.00,,,0.66,,2013-08-02 18:43:00,
2013-08-02 14:52:00,82.0,65.0,29.77,WNW,288,3.0,9.0,56,0.00,,,0.66,,2013-08-02 18:52:00,
2013-08-02 15:12:00,83.0,66.0,29.77,WNW,296,3.0,12.0,56,0.00,,,0.66,,2013-08-02 19:12:00,
2013-08-02 15:43:00,82.0,65.0,29.78,West,270,1.0,8.0,57,0.00,,,0.66,,2013-08-02 19:43:00,
2013-08-02 15:52:00,82.0,65.0,29.78,West,270,1.0,8.0,57,0.00,,,0.66,,2013-08-02 19:52:00,
2013-08-02 16:02:00,80.0,64.0,29.78,WNW,290,2.0,6.0,59,0.00,,,0.66,,2013-08-02 20:02:00,
2013-08-02 16:12:00,79.0,65.0,29.77,WNW,302,1.0,6.0,62,0.00,,,0.66,,2013-08-02 20:12:00,
2013-08-02 16:43:00,80.0,63.0,29.76,WNW,293,2.0,8.0,57,0.00,,,0.66,,2013-08-02 20:43:00,
2013-08-02 16:52:00,79.0,63.0,29.77,WNW,292,1.0,6.0,58,0.00,,,0.66,,2013-08-02 20:52:00,
2013-08-02 17:03:00,79.0,63.0,29.77,WNW,292,1.0,6.0,58,0.00,,,0.66,,2013-08-02 21:03:00,
2013-08-02 17:12:00,79.0,63.0,29.77,WNW,292,1.0,6.0,58,0.00,,,0.66,,2013-08-02 21:12:00,
2013-08-02 17:22:00,79.0,63.0,29.77,WNW,292,1.0,6.0,58,0.00,,,0.66,,2013-08-02 21:22:00,
2013-08-02 17:32:00,79.0,61.0,29.77,WNW,292,3.0,10.0,54,0.00,,,0.66,,2013-08-02 21:32:00,
2013-08-02 17:53:00,79.0,62.0,29.77,West,280,2.0,15.0,56,0.00,,,0.66,,2013-08-02 21:53:00,
2013-08-02 18:02:00,79.0,62.0,29.77,West,280,2.0,15.0,56,0.00,,,0.66,,2013-08-02 22:02:00,
2013-08-02 18:12:00,79.0,62.0,29.77,West,280,2.0,15.0,56,0.00,,,0.66,,2013-08-02 22:12:00,
2013-08-02 18:22:00,78.0,59.0,29.78,West,278,1.0,6.0,52,0.00,,,0.66,,2013-08-02 22:22:00,
2013-08-02 18:32:00,78.0,62.0,29.78,WNW,291,1.0,6.0,58,0.00,,,0.66,,2013-08-02 22:32:00,
2013-08-02 18:43:00,78.0,62.0,29.78,WNW,291,1.0,6.0,58,0.00,,,0.66,,2013-08-02 22:43:00,
2013-08-02 18:52:00,78.0,62.0,29.78,WNW,291,1.0,6.0,58,0.00,,,0.66,,2013-08-02 22:52:00,
2013-08-02 19:02:00,77.0,61.0,29.78,WSW,258,1.0,6.0,57,0.00,,,0.66,,2013-08-02 23:02:00,
2013-08-02 19:12:00,77.0,61.0,29.78,WNW,300,0.0,2.0,57,0.00,,,0.66,,2013-08-02 23:12:00,
2013-08-02 19:22:00,77.0,61.0,29.78,WNW,300,0.0,2.0,57,0.00,,,0.66,,2013-08-02 23:22:00,
2013-08-02 19:32:00,77.0,61.0,29.78,WNW,300,0.0,2.0,57,0.00,,,0.66,,2013-08-02 23:32:00,
2013-08-02 19:43:00,77.0,61.0,29.78,WNW,300,0.0,2.0,57,0.00,,,0.66,,2013-08-02 23:43:00,
2013-08-02 19:53:00,73.0,64.0,29.80,WSW,245,0.0,2.0,74,0.00,,,0.66,,2013-08-02 23:53:00,
2013-08-02 20:02:00,73.0,64.0,29.80,WSW,245,0.0,2.0,74,0.00,,,0.66,,2013-08-03 00:02:00,
2013-08-02 20:12:00,70.0,64.0,29.81,North,0,0.0,0.0,80,0.00,,,0.66,,2013-08-03 00:12:00,
2013-08-02 20:22:00,69.0,62.0,29.81,North,0,0.0,0.0,79,0.00,,,0.66,,2013-08-03 00:22:00,
2013-08-02 20:33:00,68.0,62.0,29.81,North,0,0.0,0.0,80,0.00,,,0.66,,2013-08-03 00:33:00,
2013-08-02 20:43:00,68.0,62.0,29.81,North,0,0.0,0.0,80,0.00,,,0.66,,2013-08-03 00:43:00,
2013-08-02 20:52:00,68.0,62.0,29.81,North,0,0.0,0.0,80,0.00,,,0.66,,2013-08-03 00:52:00,
2013-08-02 21:02:00,66.0,61.0,29.82,North,0,0.0,0.0,84,0.00,,,0.66,,2013-08-03 01:02:00,
2013-08-02 21:12:00,66.0,61.0,29.82,North,0,0.0,0.0,85,0.00,,,0.66,,2013-08-03 01:12:00,
2013-08-02 21:22:00,66.0,62.0,29.83,North,0,0.0,0.0,86,0.00,,,0.66,,2013-08-03 01:22:00,
2013-08-02 21:33:00,66.0,62.0,29.83,North,0,0.0,0.0,86,0.00,,,0.66,,2013-08-03 01:33:00,
2013-08-02 21:42:00,66.0,62.0,29.83,North,0,0.0,0.0,86,0.00,,,0.66,,2013-08-03 01:42:00,
2013-08-02 21:53:00,66.0,62.0,29.83,North,0,0.0,0.0,86,0.00,,,0.66,,2013-08-03 01:53:00,
2013-08-02 22:02:00,66.0,62.0,29.83,North,0,0.0,0.0,86,0.00,,,0.66,,2013-08-03 02:02:00,
2013-08-02 22:53:00,64.0,61.0,29.83,North,0,0.0,0.0,90,0.00,,,0.65,,2013-08-03 02:53:00,
2013-08-02 23:43:00,65.0,62.0,29.83,SW,228,0.0,1.0,90,0.00,,,0.61,,2013-08-03 03:43:00,
2013-08-02 23:53:00,65.0,62.0,29.83,SW,228,0.0,1.0,90,0.00,,,0.61,,2013-08-03 03:53:00,